• Join FlightAware (Why Join?)
  • Login
  • US Flag 
05:15PM EST


 

Airport Tracker/Info


-or-


 

Live Flight TrackerFlight Track Log ✈ ASQ6151 ✈ 25-Aug-2013 ✈ KORD - KGSO

Flight Track Log - Related Links

Times and Time Zones

All times are in EDT time to prevent confusion due to time zone crossing. See the ASQ6151 flight status page for this flight to view local times or setup timezone preferences in your user account.

Time Position Orientation Groundspeed Altitude Reporting Facility
EDT Latitude Longitude Course Direction KTS MPH feet Rate Location/Type
02:07PM 41.9333 -87.9000 169° South 181 208 2,200  Level Chicago TRACON
02:08PM 41.8833 -87.8667 154° Southeast 215 247 3,700 1,646 Climbing Chicago TRACON
02:09PM 41.8217 -87.8311 157° South 236 272 5,300 1,736 Climbing Chicago Center
02:10PM 41.7542 -87.7867 154° Southeast 263 303 7,200 1,935 Climbing Chicago Center
02:11PM 41.6831 -87.7400 154° Southeast 279 321 9,300 1,742 Climbing Chicago Center
02:12PM 41.5605 -87.2614 169° South  Level Estimated
02:12PM 41.6103 -87.6925 154° Southeast 287 330 10,800  Level Chicago Center
02:13PM 41.5333 -87.6422 154° Southeast 302 348 12,300 1,016 Climbing Chicago Center
02:14PM 41.4506 -87.5883 154° Southeast 320 368 12,900 532 Climbing Chicago Center
02:15PM 41.3508 -87.5603 168° South 362 417 13,400 532 Climbing Chicago Center
02:16PM 41.2242 -87.5383 173° South 382 440 14,000 532 Climbing Chicago Center
02:17PM 41.1175 -87.5117 169° South 388 447 14,500 576 Climbing Chicago Center
02:18PM 41.0083 -87.4822 168° South 398 458 15,200 672 Climbing Chicago Center
02:19PM 40.9011 -87.4533 168° South 396 456 15,900 677 Climbing Chicago Center
02:20PM 40.7922 -87.4250 169° South 399 459 16,600 629 Climbing Chicago Center
02:21PM 40.6836 -87.3956 168° South 399 459 17,200 581 Climbing Chicago Center
02:22PM 40.5533 -87.3625 169° South 399 459 17,800 629 Climbing Chicago Center
02:23PM 40.4439 -87.3253 165° South 400 460 18,500 677 Climbing Chicago Center
02:24PM 40.3506 -87.2411 145° Southeast 409 471 19,200 677 Climbing Chicago Center
02:25PM 40.2594 -87.1506 143° Southeast 412 474 19,900 677 Climbing Chicago Center
02:26PM 40.1858 -87.0344 130° Southeast 417 480 20,600 677 Climbing Chicago Center
02:28PM 40.1119 -86.9167 129° Southeast 419 482 21,300 750 Climbing Chicago Center
02:28PM 40.0361 -86.7964 129° Southeast 423 487 22,000 750 Climbing Indianapolis Center
02:29PM 39.9617 -86.6792 130° Southeast 420 483 22,700 677 Climbing Indianapolis Center
02:30PM 39.8867 -86.5622 130° Southeast 422 486 23,400 677 Climbing Indianapolis Center
02:31PM 39.8133 -86.4464 129° Southeast 419 482 24,100 677 Climbing Indianapolis Center
02:32PM 39.7244 -86.3264 134° Southeast 426 490 24,800 677 Climbing Indianapolis Center
02:34PM 39.6322 -86.2269 140° Southeast 420 483 25,500 677 Climbing Indianapolis Center
02:35PM 39.5439 -86.1317 140° Southeast 417 480 26,200 677 Climbing Indianapolis Center
02:36PM 39.4553 -86.0372 141° Southeast 416 479 26,900 677 Climbing Indianapolis Center
02:37PM 39.3644 -85.9439 142° Southeast 417 480 27,600 726 Climbing Indianapolis Center
02:38PM 39.2567 -85.8303 141° Southeast 418 481 28,400 726 Climbing Indianapolis Center
02:39PM 39.1658 -85.7392 142° Southeast 416 479 29,100 677 Climbing Indianapolis Center
02:40PM 39.0775 -85.6403 139° Southeast 421 484 29,800 677 Climbing Indianapolis Center
02:41PM 39.0086 -85.5208 127° Southeast 418 481 30,500 677 Climbing Indianapolis Center
02:42PM 38.9367 -85.4033 128° Southeast 419 482 31,200 774 Climbing Indianapolis Center
02:43PM 38.8503 -85.2600 128° Southeast 423 487 32,100 774 Climbing Indianapolis Center
02:44PM 38.7783 -85.1419 128° Southeast 422 486 32,800 674 Climbing Indianapolis Center
02:46PM 38.6300 -84.8978 128° Southeast 424 488 34,200 674 Climbing Indianapolis Center
02:47PM 38.5569 -84.7783 128° Southeast 427 491 34,900 387 Climbing Indianapolis Center
02:48PM 38.4814 -84.6569 128° Southeast 433 498 35,000 48 Climbing Indianapolis Center
02:49PM 38.3947 -84.5175 128° Southeast 431 496 35,000  Level Indianapolis Center
02:50PM 38.3208 -84.3981 128° Southeast 428 493 35,000 -194 Level Indianapolis Center
02:51PM 38.2456 -84.2769 128° Southeast 433 498 34,600 -629 Descending Indianapolis Center
02:52PM 38.1692 -84.1533 128° Southeast 440 506 33,700 -774 Descending Indianapolis Center
02:53PM 38.0917 -84.0306 129° Southeast 444 511 33,000 -339 Descending Indianapolis Center
02:54PM 38.0150 -83.9092 129° Southeast 441 507 33,000  Level Indianapolis Center
02:55PM 37.9236 -83.7658 129° Southeast 446 513 33,000  Level Indianapolis Center
02:56PM 37.8456 -83.6433 129° Southeast 446 513 33,000  Level Indianapolis Center
02:57PM 37.7692 -83.5231 129° Southeast 439 505 33,000  Level Indianapolis Center
02:58PM 37.6928 -83.4025 129° Southeast 439 505 33,000  Level Indianapolis Center
02:59PM 37.6144 -83.2817 129° Southeast 442 509 33,000  Level Indianapolis Center
03:00PM 37.5356 -83.1600 129° Southeast 445 512 33,000 -435 Level Indianapolis Center
03:01PM 37.4458 -83.0200 129° Southeast 440 506 32,100 -968 Descending Indianapolis Center
03:02PM 37.3656 -82.8981 130° Southeast 447 514 31,000 -1,016 Descending Indianapolis Center
03:03PM 37.2831 -82.7722 129° Southeast 457 526 30,000 -1,016 Descending Indianapolis Center
03:05PM 37.1994 -82.6444 129° Southeast 466 536 28,900 -1,065 Descending Indianapolis Center
03:06PM 37.1158 -82.5175 130° Southeast 468 539 27,800 -1,258 Descending Indianapolis Center
03:07PM 37.0331 -82.3917 129° Southeast 464 534 26,300 -1,632 Descending Indianapolis Center
03:08PM 36.9467 -82.2628 130° Southeast 476 548 24,400 -1,440 Descending Indianapolis Center
03:09PM 36.8489 -82.1153 130° Southeast 472 543 23,300 -1,161 Descending Indianapolis Center
03:10PM 36.7700 -81.9908 128° Southeast 460 529 22,000 -1,113 Descending Indianapolis Center
03:11PM 36.6956 -81.8669 127° Southeast 449 517 21,000 -484 Descending Indianapolis Center
03:12PM 36.6211 -81.7469 128° Southeast 441 507 21,000  Level Indianapolis Center
03:13PM 36.5564 -81.6175 122° Southeast 438 504 21,000 -194 Level Indianapolis Center
03:14PM 36.4897 -81.4675 119° Southeast 439 505 20,600 -711 Descending Indianapolis Center
03:15PM 36.4244 -81.3192 119° Southeast 432 497 19,400 -1,173 Descending Atlanta Center
03:16PM 36.3653 -81.1950 121° Southeast 427 491 18,000 -1,550 Descending Atlanta Center
03:17PM 36.3036 -81.0528 118° Southeast 422 486 16,300 -2,150 Descending Atlanta Center
03:18PM 36.2486 -80.9417 122° Southeast 397 457 13,700 -1,950 Descending Atlanta Center
03:19PM 36.1978 -80.8278 119° Southeast 391 450 12,400 -1,250 Descending Atlanta Center
03:20PM 36.1444 -80.7117 120° Southeast 384 442 11,200 -700 Descending Atlanta Center
03:21PM 36.1253 -80.6122 103° East 374 430 11,000 -100 Descending Atlanta Center
03:22PM 36.1067 -80.4742 99° East 368 423 11,000 -250 Level Atlanta Center
03:23PM 36.0889 -80.3722 102° East 341 392 10,500 -900 Descending Atlanta Center
03:24PM 36.0717 -80.2778 103° East 302 348 9,200 -1,350 Descending Atlanta Center
03:25PM 36.0542 -80.1889 104° East 280 322 7,800 -1,450 Descending Atlanta Center
03:26PM 36.0325 -80.0947 106° East 259 298 6,300 -2,150 Descending Atlanta Center
03:27PM 36.0114 -80.0214 110° East 247 284 3,500 -1,900 Descending Atlanta Center
03:28PM 36.0517 -79.9833 37° Northeast 173 199 2,500 -1,100 Descending Atlanta Center
03:29PM 36.0803 -79.9589 35° Northeast 147 169 1,300 -1,200 Descending Atlanta Center